Location: Bukowa
(51.3155°N, 19.4585°E)
Time: 00:12:42
(UTC+00:00)

Daily predictions for brighter satellites

Satellite Brightness Start Highest point End
(mag) Time Altitude Azimuth Time Altitude Azimuth Time Altitude Azimuth
SL-4 R/B 1.9 00:01:44 10° W 00:05:46 84° N 00:09:38 10° E
Resurs 1-4 Rocket 3.9 00:03:42 10° NE 00:07:55 24° E 00:12:07 10° SE
Cosmos 2082 Rocket 3.0 00:03:41 10° NNW 00:09:16 54° NE 00:14:52 10° SE
Timation 2 Rocket 4.0 00:08:50 18° SSW 00:13:21 70° ESE 00:19:19 10° NE
Cosmos 2278 Rocket 2.9 00:11:06 15° S 00:15:27 45° ESE 00:20:50 10° NE
CZ-2C R/B 3.1 00:14:32 18° SSW 00:18:10 44° W 00:23:16 10° NNW
SJ 16-02 2.8 00:15:31 11° WSW 00:19:10 28° NW 00:22:57 10° N
USA 229 DEB 4.0 00:13:24 10° NW 00:20:44 69° SW 00:28:46 10° SSE
USA 229 4.0 00:13:30 10° NW 00:20:50 69° SW 00:28:52 10° SSE
Cosmos 2151 Rocket 3.9 00:17:13 10° NNW 00:21:31 51° W 00:24:39 18° SSW
Cosmos 1943 Rocket 2.9 00:17:38 14° S 00:21:59 44° ESE 00:27:12 10° NE
CZ-2D R/B 3.7 00:17:26 10° NE 00:22:08 29° E 00:26:43 10° SSE
Cosmos 371 Rocket 3.7 00:19:30 16° SW 00:23:16 54° WNW 00:28:03 10° NNE
Okean 2 Rocket 3.3 00:20:04 10° NNW 00:24:28 58° W 00:27:51 16° S
Meteor 1-21 Rocket 4.4 00:19:49 17° SSW 00:24:33 79° WNW 00:30:26 10° N
USA 307 3.0 00:22:08 10° W 00:26:02 65° NNW 00:29:56 10° ENE
ALOS 4.4 00:24:14 10° NE 00:27:31 19° E 00:30:48 10° SE
Okean 1 Rocket 3.2 00:30:13 10° NNW 00:34:38 59° W 00:38:19 14° S
Cosmos 1025 Rocket 3.0 00:37:03 16° SSW 00:40:24 75° WNW 00:44:41 10° N
SL-19 R/B 4.4 00:36:46 10° NNE 00:42:23 73° WNW 00:47:17 14° SSW
USA 234 3.4 00:36:38 10° ENE 00:43:11 83° NNW 00:49:45 10° WSW
Nadezhda 4 Rocket 4.2 00:38:07 14° SSW 00:43:22 60° WNW 00:49:36 10° N
USA 81 4.1 00:40:40 13° S 00:45:19 77° W 00:50:37 10° N
Cosmos 1092 Rocket 4.1 00:41:31 11° S 00:47:37 82° E 00:53:58 10° NNE
Cosmos 1570 Rocket 4.1 00:43:16 10° NNW 00:48:40 90° ENE 00:54:00 10° SSE
Meteor 2-1 Rocket 4.4 00:43:30 10° NNW 00:49:26 73° W 00:55:22 10° S
Cosmos 1340 Rocket 4.0 00:46:26 10° NW 00:49:39 26° W 00:52:07 14° SW
ADEOS II 3.3 00:48:30 10° NNE 00:53:19 36° E 00:58:07 10° SSE
Cosmos 158 Rocket 4.3 00:50:03 10° NW 00:54:54 45° WSW 00:59:36 10° S
Cosmos 2084 4.5 00:51:39 10° NW 00:55:31 46° NE 00:59:19 10° ESE
Cosmos 2208 Rocket 4.1 00:51:15 10° NNW 00:56:27 80° ENE 01:01:37 10° SSE
Cosmos 292 Rocket 4.4 00:51:55 10° S 00:56:31 51° ESE 01:01:11 10° NNE
Cosmos 1975 Rocket 3.6 00:52:39 10° S 00:57:00 57° E 01:01:22 10° NNE
Cosmos 773 Rocket 4.3 00:55:30 10° NNW 01:00:42 71° ENE 01:05:55 10° SSE
ATLAS 3B R/B 3.6 00:56:23 10° NW 01:03:23 36° WSW 01:10:07 10° S
COSMOS 2441 4.5 01:00:58 10° NNE 01:05:50 77° ESE 01:10:41 10° S
MOZ.5/SAFIR/RUBIN 5/SL-8 4.2 01:03:10 10° S 01:07:32 44° W 01:11:57 10° NNW
Timation 1 Rocket 4.4 01:01:52 10° NW 01:07:51 68° WSW 01:13:48 10° SSE
FENGYUN 3A 3.7 01:05:09 10° NNE 01:10:33 89° WNW 01:15:56 10° SSW
Cosmos 2026 Rocket 4.2 01:06:31 10° SSW 01:12:44 65° WNW 01:18:55 10° N
H-2A R/B 1.9 01:09:13 10° N 01:13:11 70° WNW 01:17:10 10° SSW
Cosmos 1515 2.7 01:11:23 10° NNW 01:14:07 72° W 01:16:48 10° S
IDEFIX/ARIANE 42P 3.0 01:11:53 10° N 01:16:58 52° WNW 01:22:01 10° SW
SAR-Lupe-3 4.0 01:14:49 10° SSE 01:17:44 85° WSW 01:20:41 10° NNW
USA 305 1.0 01:17:25 10° WNW 01:19:16 31° SW 01:20:26 10° SSE
Cosmos 1455 Rocket 3.6 01:16:38 10° NNW 01:20:45 42° W 01:24:49 10° SSW
ATLAS 2AS CENTAUR R/B 3.8 01:15:28 10° W 01:22:08 42° NNW 01:28:37 10° NE
Cosmos 1833 Rocket 4.4 01:19:15 10° WNW 01:22:12 15° W 01:25:09 10° SW
Cosmos 220 Rocket 4.0 01:18:18 10° NNW 01:22:24 59° WSW 01:26:30 10° S
Envisat 3.8 01:17:43 10° NNE 01:22:39 49° E 01:27:33 10° S
Cosmos 1812 3.5 01:25:10 10° NW 01:27:50 25° W 01:30:29 10° SSW
MSX 4.3 01:22:53 10° N 01:28:25 50° WNW 01:33:54 10° SW
H-2A R/B 4.0 01:26:03 10° NE 01:30:33 27° E 01:34:57 10° SSE
NPP 4.2 01:27:10 10° N 01:32:20 47° WNW 01:37:28 10° SW
ATLAS 5 CENTAUR R/B 1.9 01:35:06 10° S 01:37:55 33° SE 01:41:00 10° ENE
